Lexington Weather

Lexington, Massachusetts, USA

25°F
2/26/2021 6:54am 
  • Lexington Conditions: Clear
  • Temperature: 24.6°F / -4.1°CColder 1.5°F than last hour.
  • Dew Point: 14.9°FDecreased 1.1°Fsince last hour.
  • Relative Humidity: 66%Increased 1.0% since last hour.
  • Wind: Calm, 10-min avg: Calm, gust: None
  • Barometer: 30.32 inRising 0.03  inHg/hr Rising Slowly
  • Visibility: 10 miles
  • Snow Today: 0.0 in
  •   

Regional Weather Roundup
for Boston / Norton, MA

        
000
ASUS41 KBOX 251705
RWRBOX

REGIONAL WEATHER ROUNDUP
NATIONAL WEATHER SERVICE BOSTON/NORTON MA
1200 PM EST THU FEB 25 2021

NOTE:  "FAIR" INDICATES FEW OR NO CLOUDS BELOW 12,000 FEET WITH NO 
SIGNIFICANT WEATHER AND/OR OBSTRUCTIONS TO VISIBILITY.

MAZALL-251800-
EASTERN MASSACHUSETTS
  
CITY           SKY/WX    TMP DP  RH WIND       PRES   REMARKS
BOSTON         MOSUNNY   44  19  36 W14       29.98                   
BEVERLY        MOSUNNY   42  15  33 NW16G29   29.96R                  
LAWRENCE       PTSUNNY   41  17  38 W17G28    29.98S                  
BEDFORD        MOSUNNY   41  17  38 W20G31    29.98R WCI  32          
BLUE HILL        N/A     40  17  39 W21G33    29.95R WCI  30          
NORWOOD        SUNNY     45  17  32 W18G25    29.99R                  
MARSHFIELD     MOSUNNY   46  18  31 NW14G23   29.97S                  
PLYMOUTH       SUNNY     46  21  37 NW17G23   29.96S                  
TAUNTON        SUNNY     48  14  25 NW14G24   29.99R                  
NEW BEDFORD    SUNNY     49  13  23 W20G25    29.98R                  
$$

MAZALL-251800-
CAPE COD AND THE ISLANDS
  
CITY           SKY/WX    TMP DP  RH WIND       PRES   REMARKS
FALMOUTH       NOT AVBL                                               
HYANNIS        SUNNY     45  23  42 N18G25    29.95R                  
CHATHAM        MOSUNNY   45  20  36 NW12G21   29.97R                  
PROVINCETOWN   SUNNY     43  25  49 NW18      29.98S                  
NANTUCKET      MOSUNNY   45  26  47 N14       29.98R                  
MARTHAS VNYRD  MOSUNNY   49  20  31 NW20G26   29.97R                  
$$
 
MAZALL-251800-
CENTRAL AND WESTERN MASSACHUSETTS
  
CITY           SKY/WX    TMP DP  RH WIND       PRES   REMARKS
WORCESTER      MOSUNNY   38  15  39 W22G36    29.98R WCI  27          
FITCHBURG      MOSUNNY   39  18  42 NW21G29   30.00R WCI  29          
ORANGE         PTSUNNY   39  16  39 NW18G28   30.02R WCI  30          
SPRINGFIELD    NOT AVBL                                               
WESTFIELD      SUNNY     39  19  44 NW14G28   30.05R WCI  31          
NORTH ADAMS    CLOUDY    37  19  48 W17G25    30.03S WCI  27          
PITTSFIELD     PTSUNNY   35  20  54 W18G29    30.02R WCI  24          
$$
 
RIZALL-251800-
RHODE ISLAND
  
CITY           SKY/WX    TMP DP  RH WIND       PRES   REMARKS
PROVIDENCE       N/A     46  15  28 NW15G32   30.01R                  
NEWPORT        SUNNY     45  21  38 NW13G23   30.00R                  
BLOCK ISLAND   SUNNY     44  23  43 NW9G23    30.04R                  
SMITHFIELD     SUNNY     42  17  36 W20G35    30.00R                  
WESTERLY       SUNNY     44  18  35 NW8G22    30.03S                  
$$
 
CTZALL-251800-
CONNECTICUT
  
CITY           SKY/WX    TMP DP  RH WIND       PRES   REMARKS
BRADLEY INTL   MOSUNNY   41  19  41 NW16G26   30.06R                  
HARTFORD       SUNNY     43  17  35 NW20G26   30.07S                  
BRIDGEPORT     SUNNY     48  19  31 NW15G21   30.07R                  
DANBURY        SUNNY     44  16  32 NW15G24   30.09R                  
GROTON         SUNNY     46  18  32 NW20G29   30.04S                  
NEW HAVEN      SUNNY     47  21  35 NW10      30.07R                  
CHESTER        FAIR      43  14  31 NW22G36   30.05R                  
MERIDEN        SUNNY     43  18  36 NW13      30.08R                  
WILLIMANTIC    MOSUNNY   41  18  39 W16G28    30.05F                  
OXFORD         SUNNY     42  20  41 NW8G17    30.06R                  
$$

MEZ002-015-021-024-NHZ003-005-008-011-012-014-VTZ005-008-251800-
NORTHERN NEW ENGLAND
  
CITY           SKY/WX    TMP DP  RH WIND       PRES   REMARKS
PORTLAND ME    PTSUNNY   37  17  44 NW21G31   29.90S WCI  26          
BANGOR ME      MOSUNNY   35  12  38 W18G31    29.78R WCI  24          
CONCORD NH     PTSUNNY   37  16  42 NW18G31   29.96R WCI  27          
MANCHESTER NH  PTSUNNY   41  13  31 W21G33    29.96R WCI  32          
NASHUA NH      PTSUNNY   41  14  33 W21G30    29.98S WCI  32          
PORTSMOUTH NH  PTSUNNY   39  11  31 W20G29    29.93S WCI  30          
JAFFREY NH     PTSUNNY   37  16  42 NW12G21   29.97R WCI  29          
KEENE NH       PTSUNNY   38  15  39 W15G21    30.00S WCI  29          
BURLINGTON VT  PTSUNNY   32  16  51 NW14G23   30.04R WCI  22          
MT. WASHINGTON NOT AVBL                                               
$$

NYZ052-076-251800-
EASTERN NEW YORK
  
CITY           SKY/WX    TMP DP  RH WIND       PRES   REMARKS
ALBANY         MOSUNNY   35  22  58 W29G40    30.09R WCI  22          
NEW YORK CITY  MOSUNNY   45  19  35 NW18      30.11S                  
$$
 
ANZALL-251800-
MARINE OBSERVATIONS
  
STATION/POSITION TIME  TEMP    WIND        PRES    VSBY  WAVE
                       AIR SEA DIR/SP/G                  HT/PER
                 (UTC) (F)     (DEG/KT/KT) (MB)    (MI)  (FT/S)
BOSTON BUOY      1650   40 39  290/ 16/ 19 1015.4R         3/ 4
BUZZARDS BAY     1600          320/ 23/ 25 1016.4R
NANTUCKET SOUND  1650      37  340/ 14/ 16   N/A           2/ 4
MASS BAY-STELLWA 1604   39     310/ 16/ 21 1013.3R  1 7/8  3/ 4
ISLE OF SHOALS   1600   37     290/ 23/ 27 1013.3R
S OF BLOCK IS    1626      40                N/A           7/ 7
$$

......................KEY.........................
  SKY/WX - SKY CONDITION/PRESENT WEATHER
  TMP    - TEMPERATURE IN FAHRENHEIT
  DWPT   - DEWPOINT IN FAHRENHEIT
  RH     - RELATIVE HUMIDITY IN PERCENT
  WIND   - DIRECTION AND SPEED IN MPH
  PRES   - MEAN SEA LEVEL PRESSURE IN INCHES OF HG
  WCI    - WIND CHILL INDEX
  VSB    - VISIBILITY IN MILES
  HX     - HEAT INDEX
  TC     - TEMPERATURE IN CELSIUS
  VRB    - VARIABLE WIND DIRECTION
  N/A    - NOT AVAILABLE
  
      

Other recent Regional Weather Roundups

Fri Feb 26, 6:04am

Fri Feb 26, 5:04am

Fri Feb 26, 4:04am

Fri Feb 26, 3:04am

Fri Feb 26, 2:04am

Fri Feb 26, 1:04am

Fri Feb 26, 12:04am

Thu Feb 25, 11:04pm

Thu Feb 25, 10:04pm

Thu Feb 25, 9:04pm

Thu Feb 25, 8:05pm

Thu Feb 25, 7:05pm

Thu Feb 25, 6:04pm

Thu Feb 25, 5:04pm

Thu Feb 25, 4:05pm

Thu Feb 25, 3:05pm

Thu Feb 25, 2:04pm

Thu Feb 25, 1:04pm

Thu Feb 25, 11:04am

Thu Feb 25, 10:04am

Thu Feb 25, 9:04am

Thu Feb 25, 8:04am

Thu Feb 25, 7:04am

Thu Feb 25, 6:04am

Thu Feb 25, 5:04am

Thu Feb 25, 4:04am

Thu Feb 25, 3:04am

Thu Feb 25, 2:04am

Thu Feb 25, 1:04am

Thu Feb 25, 12:04am

Wed Feb 24, 11:04pm

Wed Feb 24, 10:05pm

Wed Feb 24, 9:04pm

Wed Feb 24, 8:04pm

Wed Feb 24, 7:04pm

Wed Feb 24, 6:04pm

Wed Feb 24, 5:04pm

Wed Feb 24, 4:04pm

Wed Feb 24, 3:04pm

Wed Feb 24, 2:05pm

Wed Feb 24, 1:05pm

Wed Feb 24, 12:05pm

Wed Feb 24, 11:04am

Wed Feb 24, 10:04am

Wed Feb 24, 9:04am

Wed Feb 24, 8:04am

Wed Feb 24, 7:04am

Wed Feb 24, 6:04am

Wed Feb 24, 5:04am

Wed Feb 24, 4:04am

Wed Feb 24, 3:04am

Wed Feb 24, 2:04am

Wed Feb 24, 1:04am

Wed Feb 24, 12:04am

Tue Feb 23, 11:04pm

Tue Feb 23, 10:04pm

Tue Feb 23, 9:04pm

Tue Feb 23, 8:05pm

Tue Feb 23, 7:04pm

Tue Feb 23, 6:04pm

Tue Feb 23, 5:04pm

Tue Feb 23, 4:05pm

Tue Feb 23, 3:04pm

Tue Feb 23, 2:04pm

Tue Feb 23, 1:04pm

Tue Feb 23, 12:04pm

Tue Feb 23, 11:04am

Tue Feb 23, 10:04am

Tue Feb 23, 9:04am

Tue Feb 23, 7:04am

Tue Feb 23, 6:04am

Tue Feb 23, 5:04am

Tue Feb 23, 4:04am

Tue Feb 23, 3:04am

Tue Feb 23, 2:04am

Tue Feb 23, 1:04am

Tue Feb 23, 12:04am

Mon Feb 22, 11:04pm

Mon Feb 22, 10:04pm

Mon Feb 22, 9:04pm

Mon Feb 22, 8:04pm

Mon Feb 22, 7:04pm

Mon Feb 22, 6:04pm

Mon Feb 22, 5:04pm

Mon Feb 22, 4:05pm

Mon Feb 22, 3:04pm

Mon Feb 22, 2:05pm

Mon Feb 22, 1:04pm

Mon Feb 22, 12:05pm

Mon Feb 22, 11:04am

Mon Feb 22, 10:04am

Mon Feb 22, 9:05am

Mon Feb 22, 8:04am

Mon Feb 22, 7:04am

Mon Feb 22, 6:04am

Mon Feb 22, 5:04am

Mon Feb 22, 4:04am

Mon Feb 22, 3:04am

Mon Feb 22, 2:04am

Mon Feb 22, 1:04am

Mon Feb 22, 12:04am

Sun Feb 21, 11:04pm

Sun Feb 21, 10:05pm

Sun Feb 21, 9:04pm

Sun Feb 21, 8:04pm

Sun Feb 21, 7:04pm

Sun Feb 21, 6:04pm

Sun Feb 21, 5:04pm

Sun Feb 21, 4:05pm

Sun Feb 21, 3:04pm

Sun Feb 21, 2:04pm

Sun Feb 21, 1:05pm

Sun Feb 21, 12:05pm

Sun Feb 21, 11:04am

Sun Feb 21, 10:05am

Sun Feb 21, 9:04am

Sun Feb 21, 8:04am

Sun Feb 21, 7:04am

Sun Feb 21, 6:04am

Sun Feb 21, 5:04am

Sun Feb 21, 4:04am

Sun Feb 21, 3:04am

Sun Feb 21, 2:04am

Sun Feb 21, 1:04am

Sun Feb 21, 12:04am

Sat Feb 20, 11:04pm

Sat Feb 20, 10:04pm

Sat Feb 20, 9:04pm

Sat Feb 20, 8:04pm

Sat Feb 20, 7:04pm

Sat Feb 20, 6:04pm

Sat Feb 20, 5:04pm

Sat Feb 20, 4:05pm

Sat Feb 20, 3:04pm

Sat Feb 20, 2:04pm

Sat Feb 20, 1:05pm

Sat Feb 20, 12:05pm

Sat Feb 20, 11:04am

Sat Feb 20, 10:05am

Sat Feb 20, 9:04am

Sat Feb 20, 8:04am

Sat Feb 20, 7:04am

Sat Feb 20, 6:04am

Sat Feb 20, 5:04am

Sat Feb 20, 4:04am

Sat Feb 20, 3:04am

Sat Feb 20, 2:04am

Sat Feb 20, 1:04am

Sat Feb 20, 12:04am

Fri Feb 19, 11:04pm

Fri Feb 19, 10:05pm

Fri Feb 19, 9:04pm

Fri Feb 19, 8:04pm

Fri Feb 19, 7:04pm

Fri Feb 19, 6:04pm

Fri Feb 19, 5:04pm

Fri Feb 19, 4:05pm

Fri Feb 19, 3:04pm

Fri Feb 19, 2:04pm

Fri Feb 19, 1:05pm

Fri Feb 19, 12:05pm

Fri Feb 19, 11:04am

Fri Feb 19, 10:04am

Fri Feb 19, 9:04am

Fri Feb 19, 8:04am

Fri Feb 19, 7:04am

Meta data:

ID: d7b0124f-391e-4bff-8b6f-735106ab73cd
Link: https://api.weather.gov/products/d7b0124f-391e-4bff-8b6f-735106ab73cd